Location: Asheville, NC
(35.6000°N, 82.5500°W)
Time: 05:37:01
(UTC-04:00)

ISS - Pass Details

Date: 16 October 2017
Orbit: 401 x 408 km, 51.6° (Epoch: 18 October)

Event Time Altitude Azimuth Distance (km) Brightness Sun altitude
Rises 19:17:47 0° 314° (NW) 2,317 0.6 -5.8°
Reaches altitude 10° 19:19:53 10° 317° (NW) 1,457 -0.5 -6.2°
Maximum altitude 19:23:08 65° 40° (NE) 444 -3.8 -6.9°
Drops below altitude 10° 19:26:22 10° 124° (SE) 1,452 -1.5 -7.5°
Enters shadow 19:27:33 - 126° (SE) 1,935 -0.8 -7.8°
